FB234 YSBK-YSBK

Flight info

Callsign FB234
Flight time 0h 14m
Altitude 4000
Route SUD
Aircraft AS50/L-SDFGIR/S

Departure

Time 2026-04-23 07:17
Airport Sydney Bankstown Airport (YSBK)

Arrival

Time 2026-04-23 07:31
Airport Sydney Bankstown Airport (YSBK)
Time Latitude Longitude Altitude Speed Heading
2026-04-23 07:04 -33.91781 150.99557 31 ft 0 kts 212°
2026-04-23 07:16 -33.91787 150.99549 49 ft 4 kts 200°
2026-04-23 07:16 -33.91823 150.99576 100 ft 25 kts 138°
2026-04-23 07:16 -33.91997 150.99914 356 ft 60 kts 113°
2026-04-23 07:17 -33.91549 151.00000 717 ft 98 kts 307°
2026-04-23 07:17 -33.91840 150.99428 943 ft 98 kts 201°
2026-04-23 07:17 -33.92549 150.99074 900 ft 119 kts 198°
2026-04-23 07:17 -33.93349 150.98804 961 ft 124 kts 187°
2026-04-23 07:18 -33.94206 150.98651 883 ft 127 kts 182°
2026-04-23 07:18 -33.95061 150.98642 814 ft 127 kts 173°
2026-04-23 07:18 -33.95892 150.98869 866 ft 119 kts 158°
2026-04-23 07:18 -33.96652 150.99228 907 ft 120 kts 154°
2026-04-23 07:19 -33.97410 150.99692 888 ft 122 kts 149°
2026-04-23 07:19 -33.98129 151.00213 891 ft 121 kts 147°
2026-04-23 07:19 -33.98812 151.00822 897 ft 124 kts 137°
2026-04-23 07:19 -33.99418 151.01575 880 ft 129 kts 133°
2026-04-23 07:20 -33.99997 151.02392 873 ft 127 kts 131°
2026-04-23 07:20 -34.00563 151.03200 882 ft 125 kts 131°
2026-04-23 07:20 -34.01348 151.03671 879 ft 130 kts 167°
2026-04-23 07:20 -34.02225 151.03633 915 ft 125 kts 184°
2026-04-23 07:21 -34.03094 151.03402 889 ft 130 kts 192°
2026-04-23 07:21 -34.03980 151.03121 892 ft 133 kts 190°
2026-04-23 07:21 -34.04833 151.02840 1141 ft 120 kts 189°
2026-04-23 07:21 -34.05658 151.02620 1162 ft 124 kts 183°
2026-04-23 07:22 -34.06532 151.02674 1147 ft 130 kts 164°
2026-04-23 07:22 -34.06761 151.02749 1139 ft 131 kts 160°
2026-04-23 07:23 -34.07327 151.03030 1350 ft 108 kts 147°
2026-04-23 07:24 -34.07804 151.03433 1995 ft 81 kts 139°
2026-04-23 07:24 -34.08343 151.03783 2262 ft 95 kts 164°
2026-04-23 07:24 -34.08390 151.03789 2271 ft 96 kts 168°
2026-04-23 07:25 -34.08868 151.03785 2197 ft 115 kts 174°
2026-04-23 07:25 -34.09681 151.03597 2256 ft 122 kts 197°
2026-04-23 07:26 -34.10439 151.03711 2410 ft 109 kts 145°
2026-04-23 07:26 -34.10743 151.04487 2535 ft 111 kts 91°
2026-04-23 07:26 -34.10386 151.05346 2547 ft 127 kts 46°
2026-04-23 07:26 -34.09624 151.05907 2537 ft 132 kts 28°
2026-04-23 07:27 -34.08682 151.06200 1905 ft 142 kts
2026-04-23 07:27 -34.07736 151.06066 1655 ft 138 kts 348°
2026-04-23 07:27 -34.06781 151.05656 1192 ft 157 kts 339°
2026-04-23 07:27 -34.05811 151.05150 1028 ft 144 kts 336°
2026-04-23 07:28 -34.05044 151.04429 939 ft 124 kts 298°
2026-04-23 07:28 -34.04877 151.03459 1014 ft 121 kts 269°
2026-04-23 07:28 -34.04967 151.02417 956 ft 131 kts 252°
2026-04-23 07:28 -34.05276 151.01436 1014 ft 111 kts 223°
2026-04-23 07:29 -34.05681 151.01246 1146 ft 99 kts 181°
2026-04-23 07:29 -34.06126 151.01215 1282 ft 95 kts 176°
2026-04-23 07:29 -34.06150 151.01217 1278 ft 94 kts 173°
2026-04-23 07:29 -34.06725 151.01516 1438 ft 99 kts 151°
2026-04-23 07:30 -34.07233 151.01528 1343 ft 120 kts 190°
2026-04-23 07:30 -34.08319 151.01146 1493 ft 102 kts 174°
2026-04-23 07:30 -34.08656 151.01624 1773 ft 74 kts 72°
2026-04-23 07:30 -34.08322 151.01764 1697 ft 96 kts 355°
2026-04-23 07:31 -34.07838 151.01515 1628 ft 56 kts 308°
2026-04-23 07:31 -34.07933 151.01166 1329 ft 47 kts 162°
2026-04-23 07:31 -34.07922 151.01460 1204 ft 63 kts 87°
2026-04-23 07:31 -34.08026 151.02018 1157 ft 76 kts 112°
2026-04-23 07:32 -34.08122 151.02216 1155 ft 77 kts 135°
2026-04-23 07:32 -34.08615 151.02087 1437 ft 82 kts 203°
2026-04-23 07:32 -34.09208 151.01618 1422 ft 118 kts 212°